Total_Precipitation_Accumulation
0.79 0.74 0.70 0.65 0.57 0.55 0.54 0.57 0.57 0.53 0.47 0.41 0.35 0.29 0.26 0.24 0.23 0.24 0.24 0.25 0.23 0.26 0.37 0.48 0.53 0.55 0.59 0.65 0.67 0.65 0.64 0.58 0.53 0.47 0.44 0.43 0.41 0.42 0.45 0.47 0.49 0.50 0.53
0.90 0.86 0.75 0.68 0.62 0.57 0.57 0.62 0.63 0.61 0.56 0.49 0.42 0.36 0.33 0.30 0.25 0.24 0.25 0.25 0.24 0.26 0.33 0.47 0.60 0.71 0.78 0.82 0.83 0.80 0.74 0.67 0.62 0.59 0.57 0.55 0.51 0.49 0.51 0.49 0.48 0.49 0.51
0.98 0.97 0.90 0.76 0.66 0.68 0.67 0.68 0.72 0.74 0.69 0.59 0.52 0.46 0.40 0.36 0.30 0.27 0.27 0.26 0.23 0.21 0.26 0.41 0.57 0.67 0.76 0.86 0.97 0.98 0.85 0.75 0.68 0.64 0.65 0.67 0.64 0.60 0.57 0.56 0.57 0.55 0.55
1.03 1.06 1.01 0.96 0.86 0.82 0.80 0.77 0.74 0.69 0.65 0.59 0.54 0.51 0.48 0.44 0.39 0.36 0.36 0.30 0.25 0.20 0.22 0.31 0.42 0.52 0.62 0.75 0.91 1.09 1.00 0.90 0.79 0.71 0.71 0.76 0.80 0.73 0.69 0.69 0.67 0.66 0.64
1.22 1.21 1.12 1.10 1.12 1.04 0.94 0.88 0.83 0.75 0.70 0.66 0.62 0.61 0.60 0.54 0.48 0.44 0.40 0.33 0.31 0.28 0.26 0.26 0.29 0.36 0.45 0.62 0.76 0.96 1.08 1.07 0.96 0.87 0.78 0.77 0.78 0.79 0.82 0.83 0.82 0.81 0.80
1.49 1.39 1.33 1.28 1.30 1.23 1.11 1.03 0.93 0.86 0.79 0.79 0.77 0.70 0.65 0.59 0.56 0.50 0.44 0.40 0.38 0.37 0.39 0.39 0.39 0.38 0.42 0.53 0.71 0.86 1.00 1.13 1.09 0.95 0.85 0.81 0.83 0.86 0.93 0.99 1.01 1.00 0.99
1.78 1.61 1.48 1.45 1.45 1.37 1.24 1.18 1.14 1.03 0.96 0.97 0.94 0.78 0.66 0.59 0.55 0.50 0.50 0.50 0.45 0.41 0.42 0.48 0.51 0.50 0.42 0.42 0.52 0.64 0.76 0.93 1.07 1.08 1.00 0.93 0.94 0.99 1.09 1.20 1.24 1.22 1.22
2.02 1.83 1.65 1.58 1.55 1.52 1.38 1.29 1.32 1.28 1.17 1.16 1.14 1.09 0.91 0.74 0.58 0.51 0.51 0.50 0.49 0.51 0.47 0.45 0.45 0.48 0.50 0.45 0.42 0.46 0.52 0.69 0.94 1.14 1.22 1.19 1.17 1.19 1.29 1.43 1.51 1.56 1.57
2.22 2.07 1.90 1.83 1.75 1.72 1.64 1.53 1.48 1.44 1.41 1.35 1.36 1.47 1.25 0.95 0.70 0.59 0.58 0.55 0.53 0.56 0.58 0.54 0.51 0.48 0.49 0.46 0.46 0.47 0.48 0.57 0.83 1.13 1.39 1.46 1.45 1.49 1.67 1.82 1.90 1.97 1.96
2.22 2.23 2.13 1.99 1.91 1.86 1.79 1.85 1.88 1.77 1.66 1.52 1.42 1.34 1.31 1.14 1.06 0.85 0.67 0.65 0.63 0.59 0.63 0.63 0.59 0.55 0.52 0.52 0.53 0.57 0.62 0.65 0.82 1.15 1.49 1.72 1.81 1.95 2.17 2.32 2.40 2.45 2.34
2.06 2.15 2.17 2.06 1.88 1.75 1.69 1.75 1.83 1.89 1.78 1.64 1.53 1.44 1.37 1.22 1.13 1.11 0.90 0.74 0.72 0.66 0.65 0.68 0.70 0.71 0.70 0.69 0.69 0.75 0.83 0.88 1.04 1.32 1.67 2.02 2.25 2.43 2.64 2.82 2.85 2.82 2.73
1.90 1.91 1.96 1.93 1.89 1.78 1.66 1.68 1.80 1.87 1.88 1.83 1.70 1.56 1.47 1.37 1.19 1.19 1.12 0.93 0.88 0.80 0.76 0.79 0.82 0.85 0.85 0.84 0.82 0.92 0.98 1.08 1.21 1.41 1.75 2.11 2.39 2.56 2.71 2.99 3.17 3.14 3.10
1.80 1.80 1.90 1.87 1.88 1.82 1.78 1.73 1.73 1.72 1.76 1.80 1.73 1.62 1.47 1.35 1.28 1.35 1.37 1.20 1.06 0.93 0.92 0.90 0.89 0.88 0.88 0.90 0.93 1.04 1.01 1.06 1.11 1.26 1.57 1.91 2.05 2.13 2.26 2.48 2.78 2.97 3.04
1.65 1.65 1.76 1.82 1.83 1.84 1.82 1.79 1.75 1.68 1.66 1.68 1.63 1.56 1.45 1.32 1.26 1.32 1.44 1.54 1.48 1.22 1.04 0.98 0.95 0.96 0.96 0.95 1.00 1.10 0.98 1.12 1.13 1.21 1.38 1.53 1.53 1.50 1.60 1.76 1.98 2.26 2.47
1.48 1.47 1.50 1.57 1.63 1.66 1.69 1.72 1.71 1.63 1.56 1.54 1.50 1.43 1.36 1.25 1.18 1.21 1.30 1.48 1.73 1.67 1.33 1.05 1.01 0.99 1.00 0.98 1.07 0.99 0.89 1.08 1.14 1.14 1.16 1.19 1.16 1.14 1.24 1.38 1.54 1.79 2.00
1.23 1.23 1.28 1.34 1.39 1.42 1.46 1.55 1.55 1.53 1.51 1.44 1.41 1.38 1.32 1.25 1.22 1.24 1.29 1.36 1.50 1.64 1.50 1.12 0.95 0.91 0.93 0.93 1.04 0.93 0.87 1.06 1.07 1.07 1.05 1.03 1.04 1.07 1.13 1.25 1.34 1.49 1.73
1.05 1.07 1.10 1.17 1.23 1.26 1.26 1.32 1.40 1.42 1.41 1.36 1.33 1.31 1.27 1.22 1.22 1.21 1.24 1.29 1.34 1.42 1.42 1.11 0.93 0.90 0.95 0.94 0.98 0.93 0.87 0.84 0.83 0.94 0.93 0.92 0.92 0.97 1.06 1.15 1.21 1.29 1.47
0.88 0.87 0.86 0.93 0.99 1.02 1.05 1.08 1.13 1.19 1.23 1.22 1.23 1.27 1.26 1.27 1.32 1.33 1.34 1.33 1.30 1.27 1.28 1.17 0.97 0.87 0.84 0.79 0.78 0.81 0.83 0.82 0.77 0.89 0.89 0.87 0.90 0.94 1.02 1.05 1.08 1.14 1.23
0.86 0.88 0.82 0.80 0.83 0.85 0.92 0.94 0.94 0.98 1.04 1.07 1.11 1.17 1.21 1.26 1.34 1.36 1.34 1.30 1.24 1.19 1.18 1.17 1.03 0.90 0.86 0.81 0.79 0.78 0.78 0.78 0.75 0.83 0.87 0.86 0.87 0.89 0.93 1.01 1.05 1.04 1.06
0.79 0.81 0.83 0.81 0.80 0.81 0.86 0.91 0.94 0.96 1.01 1.04 1.07 1.10 1.12 1.13 1.14 1.14 1.14 1.12 1.12 1.13 1.13 1.15 1.09 0.97 0.90 0.86 0.88 0.91 0.87 0.78 0.74 0.69 0.75 0.76 0.78 0.79 0.80 0.85 0.91 0.93 0.94
0.74 0.76 0.80 0.82 0.81 0.82 0.87 0.94 0.99 1.00 1.02 1.08 1.13 1.11 1.05 1.03 0.98 0.96 0.96 0.95 0.96 1.04 1.13 1.17 1.12 1.00 0.89 0.87 0.86 0.82 0.86 0.84 0.79 0.70 0.68 0.65 0.64 0.63 0.65 0.72 0.81 0.92 1.00
0.74 0.79 0.85 0.90 0.93 0.97 1.12 1.14 1.09 1.07 1.05 1.02 1.01 0.96 0.93 0.93 0.90 0.93 0.93 0.92 0.97 1.09 1.20 1.19 1.06 0.90 0.73 0.69 0.76 0.86 0.96 1.01 0.93 0.69 0.67 0.71 0.69 0.69 0.64 0.67 0.83 0.95 1.07
0.86 0.92 0.96 1.06 1.08 1.11 1.17 1.08 1.04 0.99 1.01 0.98 0.90 0.83 0.79 0.74 0.76 0.71 0.79 0.86 0.88 0.95 1.01 0.99 0.92 0.76 0.69 0.69 0.88 1.06 1.04 1.00 0.82 0.63 0.69 0.78 0.73 0.75 0.70 0.76 0.91 0.95 1.06
0.96 1.03 1.02 1.04 1.06 1.07 1.07 0.99 0.96 0.85 0.82 0.82 0.78 0.72 0.66 0.64 0.64 0.68 0.75 0.82 0.73 0.68 0.70 0.67 0.68 0.72 0.73 0.74 0.86 1.03 1.05 1.02 0.87 0.74 0.73 0.83 0.73 0.74 0.71 0.76 0.90 0.89 0.94
0.96 0.99 0.98 0.93 0.86 0.85 0.86 0.79 0.77 0.71 0.70 0.68 0.67 0.68 0.69 0.63 0.70 0.83 0.85 0.83 0.70 0.58 0.61 0.69 0.74 0.74 0.78 0.77 0.81 1.03 1.19 1.26 1.09 0.81 0.70 0.73 0.66 0.67 0.73 0.78 0.85 0.93 0.93
0.80 0.78 0.75 0.71 0.66 0.62 0.65 0.62 0.61 0.54 0.56 0.57 0.60 0.63 0.71 0.69 0.77 0.88 0.80 0.77 0.70 0.60 0.58 0.57 0.56 0.56 0.55 0.60 0.72 0.86 1.24 1.58 1.30 0.96 0.64 0.76 0.79 0.85 1.06 0.80 0.78 0.85 0.89